SCP
0 0 0 0 0 0 -0 -0 -0 -0 -0 -0 -0 0 -0 0 0 -0 -0 0 -0 0 0 0 0 0 0 0 0 0 0 0 0 0 0 0 0 0 -0 -0 -0 -0 -0 -0 -0 -0 -0 -0 -0
0 0 0 0 0 0 0 -0 -0 -0 -0 -0 -0 0 0 0 0 0 0 0 0 0 0 0 0 0 0 0 0 0 0 0 0 0 0 0 0 0 0 0 0 0 -0 -0 -0 -0 0 0 0
0 0 0 0 0 0 0 -0 0 0 -0 -0 0 0 0 0 0 0 0 0 0 -0 -0 0 0 0 0 0 0 0 0 0 0 0 0 0 0 0 0 0 0 0 0 0 -0 -0 0 0 0
0 0 0 0 0 0 0 0 0 0 -0 0 0 0 0 0 0 0 0 0 -0 -0 -0 -0 0 0 0 0 0 0 0 0 0 0 0 0 0 0 0 0 0 0 0 0 0 0 0 0 0
0 0 0 0 0 0 -0 0 0 0 0 0 0 0 0 0 -0 0 0 0 0 -0 -0 -0 0 0 0 0 -0 -0 0 -0 -0 -0 -0 0 0 0 0 0 0 0 0 0 0 0 0 0 -0
0 0 0 0 0 0 0 0 0 0 0 0 0 0 0 0 0 0 0 0 0 0 -0 -0 0 0 0 0 -0 -0 0 0 -0 -0 -0 -0 0 0 0 0 0 0 0 0 0 0 0 0 0
0 0 0 0 0 0 0 0 0 0 0 0 0 0 0 0 0 0 0 0 0 0 0 0 -0 0 0 0 0 0 0 0 0 0 0 0 0 -0 0 0 0 0 0 0 0 0 0 0 0
0 0 0 0 0 0 0 0 0 0 0 0 0 0 0 0 0 0 0 0 0 0 0 0 0 0 0 0 0 -0 0 0 0 0 0 0 0 0 0 0 0 0 0 0 0 0 0 0 0
0 0 0 0 0 0 0 0 0 0 0 0 0 0 0 0 0 0 0 0 0 0 0 0 0 0 0 0 0 0 0 0 0 0 0 0 0 0 0 0 0 0 0 0 0 0 0 0 0
0 0 0 0 0 0 0 0 0 0 0 0 0 0 0 0 0 0 0 0 0 0 0 0 0 0 0 0 0 0 0 0 0 0 0 0 0 0 0 0 0 0 0 0 0 0 0 0 0
0 0 0 0 0 0 0 0 0 0 0 0 0 0 0 0 0 0 0 0 0 0 0 0 0 0 0 0 0 0 0 0 0 0 0 0 0 0 0 0 0 0 0 0 0 0 0 0 0
0 0 0 0 0 0 0 0 0 0 0 0 0 0 0 0 0 0 0 0 0 0 0 0 0 0 0 0 0 0 0 0 0 0 0 0 0 0 0 0 0 0 0 0 0 0 0 0 0
0 0 0 0 0 0 0 0 0 0 0 0 0 0 0 0 0 0 0 0 0 0 0 0 0 0 0 0 0 0 0 0 0 0 0 0 0 0 0 0 0 0 0 0 0 0 0 0 0
0 0 0 0 0 0 0 0 0 0 0 0 0 0 0 0 0 0 0 0 0 0 0 0 0 0 0 0 0 0 0 0 0 0 0 0 0 0 0 0 0 0 0 0 0 0 0 0 0
0 0 0 0 0 0 0 0 0 0 0 0 0 0 0 0 0 0 0 0 0 0 0 0 0 0 0 0 0 0 0 0 0 0 0 -0 -0 -0 -0 -0 0 0 0 0 0 0 0 0 0
0 0 0 0 0 0 0 0 0 0 0 0 0 0 0 0 0 0 0 0 0 0 0 0 0 0 0 0 0 0 0 0 0 -0 -0 -0 -0 -0 -0 -0 -0 -0 0 0 0 0 0 0 0
0 0 0 0 0 0 0 0 0 0 0 0 0 0 0 0 0 0 0 0 0 0 0 0 0 0 0 0 0 0 0 0 0 -0 -0 -0 -0 -0 -0 -0 -0 -0 0 0 0 0 0 0 0
0 0 0 0 0 0 0 0 0 0 0 0 0 0 0 0 0 0 0 0 0 0 0 0 0 0 0 0 0 0 0 0 0 0 -0 -0 -0 -0 -0 -0 0 0 0 0 0 0 0 0 0
0 0 0 0 0 0 0 0 0 0 0 0 0 0 0 0 0 0 0 0 0 0 0 0 0 0 0 0 0 0 0 0 0 0 0 -0 -0 -0 -0 0 0 0 0 0 0 0 0 0 0
0 0 0 0 0 0 0 0 0 0 0 0 0 0 0 0 0 0 0 0 0 0 0 0 0 0 0 0 0 0 0 0 0 0 0 0 0 0 0 0 0 0 0 0 0 0 0 0 0
0 0 0 0 0 0 0 0 0 0 0 0 0 0 0 0 0 0 0 0 0 0 0 0 0 0 0 0 0 0 0 0 0 0 0 0 0 0 0 0 0 0 0 0 0 0 0 0 0
0 0 0 0 0 0 0 0 0 0 0 0 0 0 0 0 0 0 0 0 0 0 0 0 0 0 0 0 0 0 0 0 0 0 0 0 0 0 0 0 0 0 0 0 0 0 0 0 0
0 0 0 0 0 0 0 0 0 0 0 0 0 0 0 -0 -0 0 0 0 0 0 0 0 0 0 0 0 0 0 0 0 0 0 0 0 0 0 0 0 0 0 0 0 0 0 0 0 0
0 0 0 0 0 0 0 0 0 0 0 0 0 0 0 0 -0 -0 0 0 0 0 0 0 0 0 0 0 0 0 0 0 0 0 0 0 0 0 0 0 0 0 0 0 0 0 0 0 0
0 0 0 0 0 0 0 0 0 0 0 0 0 0 0 0 0 0 0 0 0 0 0 0 0 0 0 0 0 0 0 0 0 0 0 0 0 0 0 0 0 0 0 0 0 0 0 0 0
0 0 0 0 0 0 0 0 0 0 0 0 0 0 0 0 0 0 0 0 0 0 0 0 0 0 0 0 0 0 0 0 0 0 0 0 0 0 0 0 0 0 0 0 0 0 0 0 0
0 0 0 0 0 0 0 0 0 0 0 0 0 0 0 0 0 0 0 0 0 0 0 0 0 0 0 0 0 0 0 0 0 0 0 0 0 0 0 0 0 0 0 0 0 0 0 0 0
0 0 0 0 0 0 0 0 0 0 0 0 0 0 0 0 0 0 0 0 0 0 0 0 0 0 0 0 0 0 0 0 0 0 0 0 0 0 0 0 0 0 0 0 0 0 0 0 0
0 0 0 0 0 0 0 0 0 0 0 0 0 0 0 0 0 0 0 0 0 0 0 0 0 0 0 0 0 0 0 0 0 0 0 0 0 0 0 0 0 0 0 0 0 0 0 0 0
0 0 0 0 0 0 0 0 0 0 0 0 0 0 0 0 0 0 0 0 0 0 0 0 0 0 0 0 0 0 0 0 0 0 0 0 0 0 0 0 0 0 0 0 0 0 0 0 0
Wind_Speed_500mb
10 4 6 5 6 8 3 5 1 4 3 3 8 10 14 9 5 10 8 16 17 18 16 12 11 12 3 9 11 15 16 18 18 15 13 10 9 5 10 6 6 10 13 12 12 12 12 12 11
5 4 6 6 8 5 2 2 7 3 17 28 23 15 9 8 13 18 21 25 24 20 16 14 14 12 11 13 12 13 14 17 19 19 16 14 12 9 9 8 8 5 7 9 10 10 10 9 8
3 8 4 7 5 6 6 3 10 13 11 5 9 12 8 9 15 19 25 30 29 25 19 18 14 9 9 11 10 10 12 13 15 17 17 16 15 15 15 14 11 9 5 5 5 6 7 7 5
3 5 11 7 6 3 4 9 16 15 3 8 16 14 10 14 23 27 32 31 29 26 23 19 16 11 10 9 8 9 10 10 11 13 14 14 15 15 15 15 15 14 9 4 1 0 2 2 3
3 3 8 8 2 2 3 12 25 8 4 8 8 10 11 17 30 31 29 27 25 24 21 18 16 14 17 16 15 14 12 9 11 12 12 11 12 13 12 13 15 15 13 10 6 2 4 6 6
3 5 6 8 6 3 3 20 9 7 6 8 11 16 10 18 29 31 27 24 23 19 19 17 14 15 11 12 15 14 13 18 18 17 18 15 10 11 12 11 11 11 12 9 8 7 4 6 11
8 5 8 11 11 6 10 22 8 10 7 5 20 9 11 19 30 35 29 23 22 20 18 15 14 11 9 8 7 9 8 8 9 10 11 10 11 9 8 10 11 11 12 12 11 10 8 6 7
9 10 9 5 12 8 16 16 11 14 9 16 16 11 10 27 34 38 32 24 19 14 14 13 10 11 5 4 3 4 2 1 5 9 13 13 12 7 6 7 9 9 11 13 12 13 12 11 10
10 7 7 13 15 6 25 9 13 9 15 13 14 12 16 32 35 38 35 26 22 18 18 17 13 10 7 6 5 8 5 3 7 13 14 13 13 11 9 10 11 16 16 19 17 15 16 15 14
6 6 15 11 12 8 21 12 26 13 13 7 13 16 30 35 34 36 34 25 26 18 13 18 16 15 15 16 8 9 8 11 13 12 10 8 8 10 14 15 17 20 19 21 22 25 26 26 23
6 7 10 11 13 14 19 12 13 16 9 20 25 35 41 40 37 38 32 23 19 18 16 16 15 13 12 11 10 8 7 6 5 5 5 6 10 15 16 14 18 21 21 21 24 26 29 32 35
5 6 7 14 16 15 17 21 10 20 7 8 18 36 45 45 41 38 31 29 23 21 18 17 15 11 10 8 6 5 4 8 9 10 10 10 11 12 13 15 17 20 24 26 29 31 33 34 36
5 6 10 13 15 16 22 7 5 16 14 13 32 40 44 44 42 34 30 27 23 20 18 17 14 11 10 9 10 10 8 7 11 13 14 15 16 16 17 19 21 23 26 28 30 31 33 36 38
11 15 13 8 11 12 7 2 1 10 17 29 38 44 44 45 43 40 34 29 23 17 18 16 17 16 16 12 9 5 7 13 16 18 20 22 23 23 24 24 24 26 27 29 31 34 36 37 39
19 9 4 4 7 5 8 4 12 11 27 37 41 43 46 45 44 37 32 26 18 17 16 19 20 19 14 9 8 10 13 16 18 22 25 27 29 30 32 32 33 33 33 34 35 36 37 39 41
7 9 6 3 10 3 6 10 4 19 37 41 43 46 48 49 42 37 32 25 22 17 21 22 19 15 12 10 11 11 12 15 20 26 30 33 35 37 39 40 40 40 40 41 41 42 42 42 44
8 6 5 6 6 6 6 9 3 18 35 37 44 48 49 48 48 45 38 31 22 20 20 22 20 15 11 10 10 7 8 13 19 25 31 34 36 39 41 45 47 47 46 47 47 48 48 50 51
6 2 3 8 3 3 4 20 10 14 35 41 44 49 51 53 53 46 42 35 29 25 24 21 18 15 10 6 2 2 8 14 19 23 29 34 38 41 45 49 53 53 51 52 53 54 54 54 57
8 7 7 3 2 3 7 15 26 21 30 33 43 51 56 57 48 47 44 38 35 31 27 22 20 15 10 5 2 7 10 16 18 21 28 34 39 44 50 57 61 60 57 56 58 59 59 58 59
6 5 6 3 3 4 6 24 20 5 13 32 45 51 59 57 51 53 50 45 38 31 28 26 24 19 13 9 8 12 13 18 20 23 30 36 41 46 52 59 65 66 64 62 60 59 58 58 54
4 7 6 5 2 3 9 12 6 3 6 10 18 35 50 62 60 57 53 48 40 36 31 25 24 22 18 16 17 19 21 24 26 29 34 38 42 49 56 63 68 70 69 67 63 60 57 56 58
7 2 5 6 4 4 7 9 7 8 8 13 22 12 27 52 61 55 51 47 41 34 30 28 27 26 25 24 24 28 31 32 32 35 39 43 48 53 60 66 70 73 70 69 67 65 64 62 59
5 6 6 4 5 3 4 3 9 8 11 19 22 22 8 28 52 56 51 43 38 34 30 29 31 32 31 32 33 35 38 38 39 40 43 47 52 59 66 70 73 72 71 71 71 70 66 65 65
15 9 10 7 3 0 2 4 5 6 9 19 26 25 7 13 31 44 45 42 40 37 36 36 35 36 36 38 39 41 43 44 42 41 47 54 62 67 69 73 73 73 74 74 73 72 71 70 69
7 8 4 4 2 5 2 2 5 9 11 12 24 20 16 12 9 23 36 40 41 40 41 41 41 41 41 41 43 45 44 41 40 46 56 64 70 73 76 75 75 75 75 76 77 77 76 74 74
4 7 7 6 4 3 3 7 2 6 15 23 25 26 22 18 11 5 11 25 34 38 39 41 41 40 40 41 43 41 37 37 45 55 63 67 72 75 75 75 76 79 81 82 80 80 79 76 70
5 4 4 11 3 1 3 6 4 5 13 26 32 36 31 25 19 13 9 4 3 8 16 22 26 30 36 38 36 33 36 45 55 61 66 70 71 73 76 78 82 83 81 80 78 74 70 64 60
2 9 5 4 4 5 5 7 5 2 9 15 25 33 33 29 25 23 19 15 12 9 10 15 23 30 32 30 30 35 44 53 60 64 67 70 74 76 80 81 81 83 81 76 68 65 61 58 51
3 2 11 6 2 5 3 6 6 4 3 7 11 22 31 32 30 25 22 19 16 16 18 21 25 26 27 30 36 43 50 57 64 69 70 72 77 78 80 82 83 81 75 64 62 61 60 58 54
3 5 6 5 7 3 1 8 2 5 3 10 16 20 21 23 24 23 23 23 23 24 24 24 25 27 30 36 42 50 59 65 67 69 71 74 76 78 80 80 77 73 68 63 58 60 58 57 55
Wind_Direction_500mb
11 9 116 92 60 62 60 79 285 122 129 73 114 113 97 52 62 107 121 119 120 127 129 133 127 110 85 27 50 67 64 59 64 73 84 81 125 81 73 90 87 89 83 77 80 69 76 78 75
357 131 114 91 82 81 319 266 145 162 127 110 97 94 65 74 96 105 106 116 119 120 124 118 119 116 62 51 57 69 66 64 65 65 67 71 74 67 65 77 71 122 97 87 77 62 67 76 68
115 137 117 84 100 132 166 159 133 130 144 161 110 94 107 123 131 119 120 116 112 112 108 104 115 119 81 69 69 70 70 68 66 64 62 60 62 59 60 61 59 66 114 94 86 68 49 41 48
216 142 74 76 104 180 190 149 150 150 97 139 131 96 106 139 134 135 128 123 116 115 113 111 113 112 87 72 72 77 80 68 65 64 59 56 54 54 55 59 59 60 68 68 71 285 305 12 358
186 98 71 88 127 197 210 166 162 157 137 143 158 153 130 152 153 145 143 133 127 124 117 112 106 94 86 75 72 81 69 68 74 62 52 50 50 49 52 61 61 56 55 52 49 2 257 252 275
135 86 89 156 184 183 181 174 170 159 142 154 126 131 154 161 162 161 154 146 139 135 127 119 110 112 103 92 79 77 68 77 80 72 59 55 55 46 57 58 46 42 39 34 31 22 351 253 245
133 88 144 153 171 179 183 172 175 157 161 183 147 138 169 171 172 172 170 165 162 155 147 146 142 135 135 121 101 99 103 79 53 29 23 34 50 53 28 35 31 25 24 20 13 5 359 334 271
138 92 121 197 183 203 167 152 166 165 193 166 174 182 182 178 178 179 181 179 185 181 170 163 178 160 151 126 153 140 118 342 13 19 28 25 23 348 311 344 358 356 8 358 0 1 352 337 320
148 81 175 189 162 190 160 142 171 173 151 175 192 186 180 173 177 185 189 188 194 205 193 189 189 174 193 214 252 272 233 305 334 328 332 335 333 325 322 313 322 309 311 310 311 324 333 337 333
125 133 206 184 180 172 169 176 163 158 158 190 191 187 168 171 172 188 191 198 188 200 208 203 200 205 206 213 226 263 287 297 305 305 306 302 302 304 301 293 303 290 289 289 298 298 304 310 312
162 171 161 167 164 152 151 148 173 156 202 201 198 180 173 173 177 189 191 185 196 207 203 212 209 217 223 236 230 253 265 281 306 335 339 332 313 299 291 294 287 290 290 289 289 287 285 287 291
127 72 137 142 152 143 160 149 181 202 211 207 204 184 176 178 184 193 185 182 196 201 200 188 188 201 223 230 203 162 124 86 68 49 30 15 358 346 333 324 315 309 303 302 297 290 285 280 284
102 136 95 130 138 125 141 148 228 233 230 204 173 177 179 181 186 189 187 180 181 179 177 173 178 191 186 169 138 121 98 65 45 33 23 15 6 0 353 342 332 324 316 310 305 301 297 292 287
135 120 127 136 134 143 137 175 215 220 195 173 176 181 186 189 192 188 185 184 181 179 173 172 166 161 152 149 132 113 73 57 42 34 28 21 14 6 357 349 341 332 324 318 314 310 306 302 297
125 103 83 145 174 132 140 252 234 212 181 177 182 186 189 190 193 199 198 191 186 177 176 167 161 155 146 144 132 107 82 59 43 36 30 23 16 10 3 358 352 345 339 333 327 321 316 310 305
95 59 159 157 163 145 167 253 236 193 185 189 191 192 194 195 198 196 192 188 182 185 177 169 164 152 149 133 118 101 75 51 38 33 26 20 15 10 5 359 353 347 342 337 332 326 321 316 311
12 169 196 304 202 131 191 258 174 191 197 200 201 200 198 198 195 193 190 187 185 181 184 173 163 156 142 125 116 93 50 29 23 22 17 12 8 5 1 357 351 345 340 336 332 329 324 320 315
178 186 259 247 158 143 182 261 248 215 212 217 211 208 204 203 202 197 194 190 188 183 181 180 178 169 161 148 146 346 355 359 3 5 4 2 359 357 355 351 348 343 337 333 329 326 323 319 315
120 130 234 222 74 234 241 271 276 246 229 228 223 217 212 212 204 201 198 196 192 192 194 197 197 197 201 209 287 332 335 340 343 347 349 350 350 349 348 347 343 339 334 329 327 323 320 318 316
142 165 247 331 69 200 350 288 288 249 250 240 235 226 219 213 202 203 201 202 204 205 207 210 211 218 227 241 283 311 314 327 328 329 334 338 339 339 339 340 339 334 330 326 324 322 320 316 317
136 177 185 215 347 78 324 289 348 9 315 305 270 252 234 216 205 203 204 208 208 212 216 221 227 233 243 258 278 299 303 312 316 317 321 324 327 329 331 332 332 329 325 322 320 319 316 312 309
177 253 127 104 62 270 358 285 306 342 322 19 9 272 236 220 211 208 209 213 217 217 220 226 234 243 251 265 277 289 294 301 307 308 312 316 319 322 324 324 324 323 319 317 316 314 311 307 303
144 66 74 80 101 9 26 185 277 351 336 345 354 2 243 214 212 211 215 221 224 222 228 237 242 248 256 267 271 279 287 294 299 300 302 307 312 316 318 318 318 316 314 312 310 308 304 300 296
143 82 52 59 90 224 292 187 302 357 309 311 333 3 42 182 201 214 222 229 233 234 237 243 251 256 258 265 269 277 284 288 289 293 301 306 310 313 314 313 314 313 311 309 307 304 300 297 292
78 68 321 335 14 226 11 176 281 305 328 307 321 8 67 93 174 214 225 234 239 242 244 250 255 259 260 260 265 273 279 282 290 299 305 310 311 313 313 315 315 312 309 307 305 302 299 296 291
113 155 167 242 221 287 69 237 141 304 3 40 57 70 77 72 77 101 226 244 251 249 251 252 257 259 258 260 267 274 281 289 298 304 308 310 311 313 316 315 312 311 310 307 303 300 296 293 289
164 162 139 106 53 263 269 276 315 18 44 35 47 62 64 67 68 65 55 34 313 272 261 260 259 260 261 266 274 281 290 299 305 309 310 311 313 315 315 314 311 308 305 303 301 297 294 291 288
148 135 109 37 204 252 271 271 185 122 27 26 45 53 66 68 67 64 59 51 36 4 320 290 276 270 269 273 282 292 301 308 310 311 313 316 315 314 313 311 310 308 308 307 304 301 298 294 286
103 107 57 110 127 207 283 259 211 182 67 68 60 75 76 71 67 61 52 40 19 351 324 296 282 278 280 285 294 303 311 313 314 315 315 315 314 314 313 312 311 309 308 307 303 298 296 291 285
127 155 145 141 195 78 133 269 92 88 82 130 104 93 77 66 57 42 28 14 358 338 319 302 291 287 291 299 306 314 317 316 314 313 314 314 313 313 313 313 310 310 309 309 305 302 297 291 284
Wind_Speed_850mb
10 4 6 5 6 8 3 5 1 4 3 3 8 10 14 9 5 10 8 16 17 18 16 12 11 12 3 9 11 15 16 18 18 15 13 10 9 5 10 6 6 10 13 12 12 12 12 12 11
5 4 6 6 8 5 2 2 7 3 17 28 23 15 9 8 13 18 21 25 24 20 16 14 14 12 11 13 12 13 14 17 19 19 16 14 12 9 9 8 8 5 7 9 10 10 10 9 8
3 8 4 7 5 6 6 3 10 13 11 5 9 12 8 9 15 19 25 30 29 25 19 18 14 9 9 11 10 10 12 13 15 17 17 16 15 15 15 14 11 9 5 5 5 6 7 7 5
3 5 11 7 6 3 4 9 16 15 3 8 16 14 10 14 23 27 32 31 29 26 23 19 16 11 10 9 8 9 10 10 11 13 14 14 15 15 15 15 15 14 9 4 1 0 2 2 3
3 3 8 8 2 2 3 12 25 8 4 8 8 10 11 17 30 31 29 27 25 24 21 18 16 14 17 16 15 14 12 9 11 12 12 11 12 13 12 13 15 15 13 10 6 2 4 6 6
3 5 6 8 6 3 3 20 9 7 6 8 11 16 10 18 29 31 27 24 23 19 19 17 14 15 11 12 15 14 13 18 18 17 18 15 10 11 12 11 11 11 12 9 8 7 4 6 11
8 5 8 11 11 6 10 22 8 10 7 5 20 9 11 19 30 35 29 23 22 20 18 15 14 11 9 8 7 9 8 8 9 10 11 10 11 9 8 10 11 11 12 12 11 10 8 6 7
9 10 9 5 12 8 16 16 11 14 9 16 16 11 10 27 34 38 32 24 19 14 14 13 10 11 5 4 3 4 2 1 5 9 13 13 12 7 6 7 9 9 11 13 12 13 12 11 10
10 7 7 13 15 6 25 9 13 9 15 13 14 12 16 32 35 38 35 26 22 18 18 17 13 10 7 6 5 8 5 3 7 13 14 13 13 11 9 10 11 16 16 19 17 15 16 15 14
6 6 15 11 12 8 21 12 26 13 13 7 13 16 30 35 34 36 34 25 26 18 13 18 16 15 15 16 8 9 8 11 13 12 10 8 8 10 14 15 17 20 19 21 22 25 26 26 23
6 7 10 11 13 14 19 12 13 16 9 20 25 35 41 40 37 38 32 23 19 18 16 16 15 13 12 11 10 8 7 6 5 5 5 6 10 15 16 14 18 21 21 21 24 26 29 32 35
5 6 7 14 16 15 17 21 10 20 7 8 18 36 45 45 41 38 31 29 23 21 18 17 15 11 10 8 6 5 4 8 9 10 10 10 11 12 13 15 17 20 24 26 29 31 33 34 36
5 6 10 13 15 16 22 7 5 16 14 13 32 40 44 44 42 34 30 27 23 20 18 17 14 11 10 9 10 10 8 7 11 13 14 15 16 16 17 19 21 23 26 28 30 31 33 36 38
11 15 13 8 11 12 7 2 1 10 17 29 38 44 44 45 43 40 34 29 23 17 18 16 17 16 16 12 9 5 7 13 16 18 20 22 23 23 24 24 24 26 27 29 31 34 36 37 39
19 9 4 4 7 5 8 4 12 11 27 37 41 43 46 45 44 37 32 26 18 17 16 19 20 19 14 9 8 10 13 16 18 22 25 27 29 30 32 32 33 33 33 34 35 36 37 39 41
7 9 6 3 10 3 6 10 4 19 37 41 43 46 48 49 42 37 32 25 22 17 21 22 19 15 12 10 11 11 12 15 20 26 30 33 35 37 39 40 40 40 40 41 41 42 42 42 44
8 6 5 6 6 6 6 9 3 18 35 37 44 48 49 48 48 45 38 31 22 20 20 22 20 15 11 10 10 7 8 13 19 25 31 34 36 39 41 45 47 47 46 47 47 48 48 50 51
6 2 3 8 3 3 4 20 10 14 35 41 44 49 51 53 53 46 42 35 29 25 24 21 18 15 10 6 2 2 8 14 19 23 29 34 38 41 45 49 53 53 51 52 53 54 54 54 57
8 7 7 3 2 3 7 15 26 21 30 33 43 51 56 57 48 47 44 38 35 31 27 22 20 15 10 5 2 7 10 16 18 21 28 34 39 44 50 57 61 60 57 56 58 59 59 58 59
6 5 6 3 3 4 6 24 20 5 13 32 45 51 59 57 51 53 50 45 38 31 28 26 24 19 13 9 8 12 13 18 20 23 30 36 41 46 52 59 65 66 64 62 60 59 58 58 54
4 7 6 5 2 3 9 12 6 3 6 10 18 35 50 62 60 57 53 48 40 36 31 25 24 22 18 16 17 19 21 24 26 29 34 38 42 49 56 63 68 70 69 67 63 60 57 56 58
7 2 5 6 4 4 7 9 7 8 8 13 22 12 27 52 61 55 51 47 41 34 30 28 27 26 25 24 24 28 31 32 32 35 39 43 48 53 60 66 70 73 70 69 67 65 64 62 59
5 6 6 4 5 3 4 3 9 8 11 19 22 22 8 28 52 56 51 43 38 34 30 29 31 32 31 32 33 35 38 38 39 40 43 47 52 59 66 70 73 72 71 71 71 70 66 65 65
15 9 10 7 3 0 2 4 5 6 9 19 26 25 7 13 31 44 45 42 40 37 36 36 35 36 36 38 39 41 43 44 42 41 47 54 62 67 69 73 73 73 74 74 73 72 71 70 69
7 8 4 4 2 5 2 2 5 9 11 12 24 20 16 12 9 23 36 40 41 40 41 41 41 41 41 41 43 45 44 41 40 46 56 64 70 73 76 75 75 75 75 76 77 77 76 74 74
4 7 7 6 4 3 3 7 2 6 15 23 25 26 22 18 11 5 11 25 34 38 39 41 41 40 40 41 43 41 37 37 45 55 63 67 72 75 75 75 76 79 81 82 80 80 79 76 70
5 4 4 11 3 1 3 6 4 5 13 26 32 36 31 25 19 13 9 4 3 8 16 22 26 30 36 38 36 33 36 45 55 61 66 70 71 73 76 78 82 83 81 80 78 74 70 64 60
2 9 5 4 4 5 5 7 5 2 9 15 25 33 33 29 25 23 19 15 12 9 10 15 23 30 32 30 30 35 44 53 60 64 67 70 74 76 80 81 81 83 81 76 68 65 61 58 51
3 2 11 6 2 5 3 6 6 4 3 7 11 22 31 32 30 25 22 19 16 16 18 21 25 26 27 30 36 43 50 57 64 69 70 72 77 78 80 82 83 81 75 64 62 61 60 58 54
3 5 6 5 7 3 1 8 2 5 3 10 16 20 21 23 24 23 23 23 23 24 24 24 25 27 30 36 42 50 59 65 67 69 71 74 76 78 80 80 77 73 68 63 58 60 58 57 55
Wind_Direction_850mb
11 9 116 92 60 62 60 79 285 122 129 73 114 113 97 52 62 107 121 119 120 127 129 133 127 110 85 27 50 67 64 59 64 73 84 81 125 81 73 90 87 89 83 77 80 69 76 78 75
357 131 114 91 82 81 319 266 145 162 127 110 97 94 65 74 96 105 106 116 119 120 124 118 119 116 62 51 57 69 66 64 65 65 67 71 74 67 65 77 71 122 97 87 77 62 67 76 68
115 137 117 84 100 132 166 159 133 130 144 161 110 94 107 123 131 119 120 116 112 112 108 104 115 119 81 69 69 70 70 68 66 64 62 60 62 59 60 61 59 66 114 94 86 68 49 41 48
216 142 74 76 104 180 190 149 150 150 97 139 131 96 106 139 134 135 128 123 116 115 113 111 113 112 87 72 72 77 80 68 65 64 59 56 54 54 55 59 59 60 68 68 71 285 305 12 358
186 98 71 88 127 197 210 166 162 157 137 143 158 153 130 152 153 145 143 133 127 124 117 112 106 94 86 75 72 81 69 68 74 62 52 50 50 49 52 61 61 56 55 52 49 2 257 252 275
135 86 89 156 184 183 181 174 170 159 142 154 126 131 154 161 162 161 154 146 139 135 127 119 110 112 103 92 79 77 68 77 80 72 59 55 55 46 57 58 46 42 39 34 31 22 351 253 245
133 88 144 153 171 179 183 172 175 157 161 183 147 138 169 171 172 172 170 165 162 155 147 146 142 135 135 121 101 99 103 79 53 29 23 34 50 53 28 35 31 25 24 20 13 5 359 334 271
138 92 121 197 183 203 167 152 166 165 193 166 174 182 182 178 178 179 181 179 185 181 170 163 178 160 151 126 153 140 118 342 13 19 28 25 23 348 311 344 358 356 8 358 0 1 352 337 320
148 81 175 189 162 190 160 142 171 173 151 175 192 186 180 173 177 185 189 188 194 205 193 189 189 174 193 214 252 272 233 305 334 328 332 335 333 325 322 313 322 309 311 310 311 324 333 337 333
125 133 206 184 180 172 169 176 163 158 158 190 191 187 168 171 172 188 191 198 188 200 208 203 200 205 206 213 226 263 287 297 305 305 306 302 302 304 301 293 303 290 289 289 298 298 304 310 312
162 171 161 167 164 152 151 148 173 156 202 201 198 180 173 173 177 189 191 185 196 207 203 212 209 217 223 236 230 253 265 281 306 335 339 332 313 299 291 294 287 290 290 289 289 287 285 287 291
127 72 137 142 152 143 160 149 181 202 211 207 204 184 176 178 184 193 185 182 196 201 200 188 188 201 223 230 203 162 124 86 68 49 30 15 358 346 333 324 315 309 303 302 297 290 285 280 284
102 136 95 130 138 125 141 148 228 233 230 204 173 177 179 181 186 189 187 180 181 179 177 173 178 191 186 169 138 121 98 65 45 33 23 15 6 0 353 342 332 324 316 310 305 301 297 292 287
135 120 127 136 134 143 137 175 215 220 195 173 176 181 186 189 192 188 185 184 181 179 173 172 166 161 152 149 132 113 73 57 42 34 28 21 14 6 357 349 341 332 324 318 314 310 306 302 297
125 103 83 145 174 132 140 252 234 212 181 177 182 186 189 190 193 199 198 191 186 177 176 167 161 155 146 144 132 107 82 59 43 36 30 23 16 10 3 358 352 345 339 333 327 321 316 310 305
95 59 159 157 163 145 167 253 236 193 185 189 191 192 194 195 198 196 192 188 182 185 177 169 164 152 149 133 118 101 75 51 38 33 26 20 15 10 5 359 353 347 342 337 332 326 321 316 311
12 169 196 304 202 131 191 258 174 191 197 200 201 200 198 198 195 193 190 187 185 181 184 173 163 156 142 125 116 93 50 29 23 22 17 12 8 5 1 357 351 345 340 336 332 329 324 320 315
178 186 259 247 158 143 182 261 248 215 212 217 211 208 204 203 202 197 194 190 188 183 181 180 178 169 161 148 146 346 355 359 3 5 4 2 359 357 355 351 348 343 337 333 329 326 323 319 315
120 130 234 222 74 234 241 271 276 246 229 228 223 217 212 212 204 201 198 196 192 192 194 197 197 197 201 209 287 332 335 340 343 347 349 350 350 349 348 347 343 339 334 329 327 323 320 318 316
142 165 247 331 69 200 350 288 288 249 250 240 235 226 219 213 202 203 201 202 204 205 207 210 211 218 227 241 283 311 314 327 328 329 334 338 339 339 339 340 339 334 330 326 324 322 320 316 317
136 177 185 215 347 78 324 289 348 9 315 305 270 252 234 216 205 203 204 208 208 212 216 221 227 233 243 258 278 299 303 312 316 317 321 324 327 329 331 332 332 329 325 322 320 319 316 312 309
177 253 127 104 62 270 358 285 306 342 322 19 9 272 236 220 211 208 209 213 217 217 220 226 234 243 251 265 277 289 294 301 307 308 312 316 319 322 324 324 324 323 319 317 316 314 311 307 303
144 66 74 80 101 9 26 185 277 351 336 345 354 2 243 214 212 211 215 221 224 222 228 237 242 248 256 267 271 279 287 294 299 300 302 307 312 316 318 318 318 316 314 312 310 308 304 300 296
143 82 52 59 90 224 292 187 302 357 309 311 333 3 42 182 201 214 222 229 233 234 237 243 251 256 258 265 269 277 284 288 289 293 301 306 310 313 314 313 314 313 311 309 307 304 300 297 292
78 68 321 335 14 226 11 176 281 305 328 307 321 8 67 93 174 214 225 234 239 242 244 250 255 259 260 260 265 273 279 282 290 299 305 310 311 313 313 315 315 312 309 307 305 302 299 296 291
113 155 167 242 221 287 69 237 141 304 3 40 57 70 77 72 77 101 226 244 251 249 251 252 257 259 258 260 267 274 281 289 298 304 308 310 311 313 316 315 312 311 310 307 303 300 296 293 289
164 162 139 106 53 263 269 276 315 18 44 35 47 62 64 67 68 65 55 34 313 272 261 260 259 260 261 266 274 281 290 299 305 309 310 311 313 315 315 314 311 308 305 303 301 297 294 291 288
148 135 109 37 204 252 271 271 185 122 27 26 45 53 66 68 67 64 59 51 36 4 320 290 276 270 269 273 282 292 301 308 310 311 313 316 315 314 313 311 310 308 308 307 304 301 298 294 286
103 107 57 110 127 207 283 259 211 182 67 68 60 75 76 71 67 61 52 40 19 351 324 296 282 278 280 285 294 303 311 313 314 315 315 315 314 314 313 312 311 309 308 307 303 298 296 291 285
127 155 145 141 195 78 133 269 92 88 82 130 104 93 77 66 57 42 28 14 358 338 319 302 291 287 291 299 306 314 317 316 314 313 314 314 313 313 313 313 310 310 309 309 305 302 297 291 284